This demonstration page uses our WeatherBlox Daily Observations layout. Learn more.

Left ArrowRight Arrow

Hourly Observations for May 26, 2016

Temp ( °F °C ) Dew Point ( °F °C ) Humidity (%) Winds ( mph kmh ) Pressure ( in mb ) Visibility ( mi km ) Precip ( " mm )
12:05 am 00:05 Cloudy 71 21.7 67 19.4 87 87 SSE 14 22 29.94 1014 10 16 0.00 0.00
12:52 am 00:52 Cloudy 72 22.2 68 20 87 87 SSE 14 22 29.93 1014 10 16 0.00 0.00
1:13 am 01:13 Cloudy 72 22.2 68 20 87 87 SSE 13 20 29.94 1014 10 16 0.00 0.00
1:42 am 01:42 Cloudy 72 22 68 20 88 88 SSE 14 22 29.91 1013 10 16 0.00 0.00
1:52 am 01:52 Cloudy 72 22.2 68 20 87 87 SSE 13 20 29.91 1013 10 16 0.00 0.00
2:52 am 02:52 Cloudy 72 22.2 68 20 87 87 S 14 22 29.88 1012 9 14 0.00 0.00
3:52 am 03:52 Cloudy 72 22.2 69 20.6 91 91 S 10 17 29.88 1012 9 14 0.00 0.00
4:08 am 04:08 Cloudy 72 22 70 21 94 94 S 7 11 29.91 1013 9 14 0.00 0.00
4:52 am 04:52 Partly Cloudy 71 21.7 69 20.6 94 94 S 10 17 29.89 1012 8 13 0.00 0.00
5:05 am 05:05 Mostly Clear 71 21.7 68 20 90 90 SSE 10 17 29.88 1012 7 11 0.00 0.00
5:52 am 05:52 Partly Cloudy 71 21.7 68 20 90 90 SSE 9 15 29.89 1012 7 11 0.00 0.00
6:20 am 06:20 Partly Cloudy with Mist and Fog 72 22 68 20 88 88 NE 7 11 29.91 1013 5 8 0.00 0.00
6:26 am 06:26 Mostly Cloudy with Mist and Fog 72 22 68 20 88 88 NE 6 9 29.94 1014 6 10 0.00 0.00
6:52 am 06:52 Cloudy with Mist and Fog 71 21.7 68 20 90 90 ENE 5 7 29.92 1013 5 8 0.00 0.00
7:01 am 07:01 Cloudy with Mist and Fog 72 22.2 69 20.6 91 91 NE 6 9 29.94 1014 6 10 0.00 0.00
7:17 am 07:17 Cloudy with Mist and Fog 73 22.8 69 20.6 87 87 ENE 3 6 29.91 1013 6 10 0.00 0.00
7:27 am 07:27 Cloudy with Mist and Fog 73 22.8 69 20.6 87 87 E 3 6 29.91 1013 6 10 0.00 0.00
7:35 am 07:35 Cloudy 73 22.8 69 20.6 87 87 ENE 5 7 29.91 1013 7 11 0.00 0.00
7:52 am 07:52 Cloudy 73 22.8 69 20.6 87 87 E 5 7 29.93 1014 7 11 0.00 0.00
8:05 am 08:05 Mostly Cloudy 74 23.3 70 21.1 88 88 ESE 7 11 29.91 1013 7 11 0.00 0.00
8:12 am 08:12 Mostly Cloudy 73 23 70 21 89 89 ESE 6 9 29.91 1013 7 11 0.00 0.00
8:52 am 08:52 Sunny 77 25 71 21.7 82 82 S 8 13 29.95 1014 8 13 0.00 0.00
9:32 am 09:32 Mostly Cloudy 79 26 72 22 79 79 VRB 3 6 29.91 1013 8 13 0.00 0.00
9:52 am 09:52 Mostly Cloudy 80 26.7 71 21.7 74 74 N 3 6 29.93 1014 9 14 0.00 0.00
10:52 am 10:52 Cloudy 77 25 65 18.3 66 66 E 7 11 29.94 1014 10 16 0.00 0.00
11:04 am 11:04 Partly Cloudy 79 26 66 19 65 65 SSE 14 22 29.88 1012 10 16 0.00 0.00
11:52 am 11:52 Sunny 83 28.3 70 21.1 65 65 SSE 10 17 29.90 1013 10 16 0.00 0.00
12:52 pm 12:52 Mostly Sunny 85 29.4 70 21.1 61 61 S 15 24 29.87 1012 10 16 0.00 0.00
1:52 pm 13:52 Partly Cloudy 86 30 70 21.1 59 59 S 15 24 29.85 1011 10 16 0.00 0.00
2:52 pm 14:52 Mostly Sunny 88 31.1 71 21.7 57 57 S 15 24 29.82 1010 10 16 0.00 0.00
3:52 pm 15:52 Partly Cloudy 87 30.6 70 21.1 57 57 S 20 31 29.80 1009 10 16 0.00 0.00
4:52 pm 16:52 Mostly Sunny 84 28.9 69 20.6 61 61 S 16 26 29.78 1008 9 14 0.00 0.00
5:52 pm 17:52 Mostly Sunny 81 27.2 69 20.6 67 67 S 17 28 29.78 1009 10 16 0.00 0.00
6:17 pm 18:17 Mostly Cloudy with Light Rain 80 26.7 69 20.6 69 69 S 21 33 29.77 1008 10 16 0.00 0.03
6:41 pm 18:41 Partly Cloudy 79 26.1 68 20 69 69 S 29 46 29.77 1008 10 16 0.00 0.03
6:52 pm 18:52 Mostly Sunny 79 26.1 68 20 69 69 S 30 48 29.79 1009 10 16 0.00 0.03
7:52 pm 19:52 Mostly Cloudy with Light Rain 72 22.2 61 16.1 68 68 SSW 20 31 29.80 1009 10 16 0.00 0.03
8:52 pm 20:52 Clear with Light Rain 69 20.6 59 15 70 70 SE 8 13 29.77 1008 10 16 0.00 0.03
9:52 pm 21:52 Partly Cloudy 69 20.6 59 15 70 70 SE 10 17 29.80 1009 10 16 0.00 0.03
10:52 pm 22:52 Clear 70 21.1 62 16.7 76 76 SSE 12 19 29.82 1010 10 16 0.00 0.00
11:52 pm 23:52 Partly Cloudy 70 21.1 62 16.7 76 76 SSE 10 17 29.81 1010 10 16 0.00 0.00

Powered by AerisWeather